Weather History for Manteo, NC

Change the Weather History Date:

Saturday, January 18, 2014

  Actual Average Record
Temperature  
Mean Temperature 42 °F -  
Max Temperature 50 °F 46 °F 71 °F (1986)
Min Temperature 33 °F 34 °F 15 °F (1977)
Degree Days  
Heating Degree Days 24    
Moisture  
Dew Point 29 °F    
Average Humidity 64    
Maximum Humidity 89    
Minimum Humidity 44    
Precipitation  
Precipitation 0.06 in - - ()
Sea Level Pressure  
Sea Level Pressure 29.92 in    
Wind  
Wind Speed 9 mph (WNW)    
Max Wind Speed 17 mph    
Max Gust Speed 28 mph    
Visibility 10 miles    
Events Rain    
Averages and records for this station are not official NWS values.
T = Trace of Precipitation, MM = Missing Value Source: NWS Daily Summary

Daily Weather History Graph

Daily Weather History Graph

Search for Another Location

Airport:

Trip Planner

Search our weather history database for the weather conditions in past years. The results will help you decide how hot, cold, wet, or windy it might be!

Date:

Astronomy

Jan. 18, 2014 Rise Set
Actual Time 7:11 AM EST 5:15 PM EST
Civil Twilight 6:43 AM EST 5:43 PM EST
Nautical Twilight 6:12 AM EST 6:14 PM EST
Astronomical Twilight 5:41 AM EST 6:45 PM EST
Moon 7:48 PM EST (1/18) 8:15 AM EST (1/18)
Length of Visible Light 10h 59m
Length of Day
10h 03m
Waning Gibbous, 94% of the Moon is Illuminated
Jan 18
Waning Gibbous
Jan 24
Last Quarter
Jan 30
New
Feb 6
First Quarter
Feb 14
Full

Hourly Weather History & Observations

Time (EST) Temp. Windchill Dew Point Humidity Pressure Visibility Wind Dir Wind Speed Gust Speed Precip Events Conditions
12:15 AM 47.5 °F - 43.2 °F 85% 29.87 in 10.0 mi WSW 3.5 mph - N/A   Scattered Clouds
12:35 AM 49.1 °F - 42.8 °F 79% 29.85 in 10.0 mi West 6.9 mph - N/A   Clear
12:55 AM 50.2 °F - 43.0 °F 76% 29.84 in 10.0 mi West 8.1 mph - N/A   Clear
1:15 AM 50.0 °F - 42.8 °F 76% 29.82 in 10.0 mi West 6.9 mph - N/A   Clear
1:35 AM 50.2 °F - 43.0 °F 76% 29.81 in 10.0 mi West 5.8 mph - N/A   Clear
1:55 AM 50.0 °F - 42.8 °F 76% 29.80 in 10.0 mi WSW 4.6 mph - N/A   Clear
2:15 AM 48.2 °F - 43.3 °F 83% 29.79 in 10.0 mi West 4.6 mph - N/A   Clear
2:35 AM 50.2 °F - 43.2 °F 77% 29.81 in 10.0 mi West 11.5 mph 17.3 mph N/A   Scattered Clouds
2:55 AM 50.7 °F - 41.9 °F 72% 29.82 in 10.0 mi West 17.3 mph 24.2 mph N/A Rain Light Rain
3:15 AM 48.4 °F - 43.2 °F 82% 29.82 in 10.0 mi West 9.2 mph 21.9 mph N/A   Drizzle
3:35 AM 48.2 °F - 43.7 °F 84% 29.83 in 10.0 mi West 12.7 mph - N/A   Drizzle
3:55 AM 47.7 °F - 44.1 °F 87% 29.82 in 10.0 mi West 10.4 mph 16.1 mph 0.02 in Rain Light Rain
4:15 AM 47.3 °F - 42.8 °F 84% 29.83 in 10.0 mi West 8.1 mph 16.1 mph 0.01 in Rain Rain
4:35 AM 46.8 °F - 41.0 °F 80% 29.80 in 10.0 mi West 12.7 mph - 0.03 in Rain Light Rain
4:55 AM 46.0 °F 41.0 °F 41.4 °F 84% 29.79 in 10.0 mi WSW 10.4 mph - 0.04 in   Overcast
5:15 AM 45.5 °F 41.8 °F 41.4 °F 85% 29.79 in 10.0 mi West 6.9 mph - N/A   Scattered Clouds
5:35 AM 45.1 °F 40.8 °F 41.4 °F 87% 29.79 in 10.0 mi WSW 8.1 mph - N/A   Clear
5:55 AM 44.6 °F 40.2 °F 41.5 °F 89% 29.79 in 10.0 mi SW 8.1 mph - N/A   Clear
6:15 AM 44.6 °F 39.7 °F 41.5 °F 89% 29.79 in 10.0 mi SW 9.2 mph - N/A   Clear
6:35 AM 44.1 °F 38.1 °F 40.5 °F 87% 29.80 in 10.0 mi West 11.5 mph - N/A   Clear
6:55 AM 43.7 °F 36.3 °F 37.2 °F 78% 29.80 in 10.0 mi West 16.1 mph 19.6 mph N/A   Clear
7:15 AM 43.0 °F 36.4 °F 37.2 °F 80% 29.81 in 10.0 mi WNW 12.7 mph 23.0 mph N/A   Clear
7:35 AM 40.6 °F 32.0 °F 34.7 °F 79% 29.83 in 10.0 mi NW 17.3 mph 27.6 mph N/A   Scattered Clouds
7:55 AM 39.7 °F 32.3 °F 33.1 °F 77% 29.85 in 10.0 mi NW 12.7 mph 21.9 mph N/A   Clear
8:15 AM 40.1 °F 32.7 °F 32.4 °F 74% 29.86 in 10.0 mi NW 12.7 mph 20.7 mph N/A   Clear
8:35 AM 40.1 °F 32.7 °F 32.0 °F 73% 29.88 in 10.0 mi NW 12.7 mph 21.9 mph N/A   Clear
8:55 AM 40.3 °F 33.4 °F 32.2 °F 73% 29.90 in 10.0 mi WNW 11.5 mph 24.2 mph N/A   Clear
9:15 AM 40.1 °F 33.6 °F 32.2 °F 73% 29.91 in 10.0 mi NW 10.4 mph - N/A   Scattered Clouds
9:35 AM 39.9 °F 32.1 °F 32.0 °F 73% 29.92 in 10.0 mi WNW 13.8 mph 20.7 mph N/A   Mostly Cloudy
9:55 AM 40.6 °F 33.4 °F 32.0 °F 71% 29.92 in 10.0 mi WNW 12.7 mph 17.3 mph N/A   Scattered Clouds
10:15 AM 41.0 °F 34.3 °F 32.0 °F 70% 29.94 in 10.0 mi WNW 11.5 mph 19.6 mph N/A   Scattered Clouds
10:35 AM 40.8 °F 34.5 °F 31.5 °F 69% 29.94 in 10.0 mi WNW 10.4 mph 18.4 mph N/A   Clear
10:55 AM 41.4 °F 34.3 °F 31.1 °F 67% 29.94 in 10.0 mi NW 12.7 mph 20.7 mph N/A   Clear
11:15 AM 40.8 °F 34.1 °F 30.9 °F 68% 29.94 in 10.0 mi NW 11.5 mph 19.6 mph N/A   Scattered Clouds
11:35 AM 40.5 °F 34.6 °F 30.0 °F 66% 29.95 in 10.0 mi NW 9.2 mph - N/A   Scattered Clouds
11:55 AM 41.4 °F 35.2 °F 29.5 °F 63% 29.94 in 10.0 mi WNW 10.4 mph 17.3 mph N/A   Scattered Clouds
12:15 PM 41.2 °F 35.0 °F 28.4 °F 60% 29.93 in 10.0 mi NW 10.4 mph 19.6 mph N/A   Mostly Cloudy
12:35 PM 40.5 °F 34.1 °F 26.6 °F 58% 29.92 in 10.0 mi WNW 10.4 mph 17.3 mph N/A   Scattered Clouds
12:55 PM 41.0 °F 33.9 °F 25.9 °F 55% 29.92 in 10.0 mi NW 12.7 mph 19.6 mph N/A   Clear
1:15 PM 40.8 °F 34.1 °F 24.6 °F 53% 29.92 in 10.0 mi NW 11.5 mph 17.3 mph N/A   Clear
1:35 PM 40.8 °F 34.5 °F 21.7 °F 47% 29.92 in 10.0 mi NW 10.4 mph 20.7 mph N/A   Clear
1:55 PM 39.7 °F 31.5 °F 19.4 °F 44% 29.91 in 10.0 mi NNW 15.0 mph 20.7 mph N/A   Clear
2:15 PM 41.2 °F 35.5 °F 21.2 °F 45% 29.92 in 10.0 mi NW 9.2 mph 18.4 mph N/A   Mostly Cloudy
2:35 PM 40.6 °F 33.8 °F 20.5 °F 45% 29.92 in 10.0 mi WNW 11.5 mph 24.2 mph N/A   Scattered Clouds
2:55 PM 40.8 °F 33.3 °F 21.9 °F 47% 29.93 in 10.0 mi WNW 13.8 mph 20.7 mph N/A   Scattered Clouds
3:15 PM 39.9 °F 32.1 °F 19.9 °F 45% 29.94 in 10.0 mi WNW 13.8 mph 23.0 mph N/A   Scattered Clouds
3:35 PM 39.4 °F 32.3 °F 19.6 °F 45% 29.95 in 10.0 mi WNW 11.5 mph 24.2 mph N/A   Clear
3:55 PM 39.2 °F 31.6 °F 19.8 °F 46% 29.96 in 10.0 mi NW 12.7 mph 21.9 mph N/A   Clear
4:15 PM 38.3 °F 31.9 °F 19.8 °F 47% 29.97 in 10.0 mi WNW 9.2 mph 17.3 mph N/A   Clear
4:35 PM 38.3 °F 30.5 °F 19.9 °F 48% 29.97 in 10.0 mi WNW 12.7 mph 17.3 mph N/A   Clear
4:55 PM 37.4 °F 30.8 °F 19.8 °F 49% 29.98 in 10.0 mi WNW 9.2 mph 19.6 mph N/A   Clear
5:15 PM 37.0 °F 29.8 °F 19.8 °F 50% 29.98 in 10.0 mi NW 10.4 mph 17.3 mph N/A   Scattered Clouds
5:35 PM 36.5 °F 29.2 °F 18.5 °F 48% 29.99 in 10.0 mi NW 10.4 mph 18.4 mph N/A   Clear
5:55 PM 36.5 °F 30.3 °F 19.0 °F 49% 30.00 in 10.0 mi NW 8.1 mph - N/A   Clear
6:15 PM 36.5 °F 29.2 °F 19.8 °F 51% 30.01 in 10.0 mi WNW 10.4 mph - N/A   Clear
6:35 PM 35.8 °F 28.8 °F 19.2 °F 51% 30.03 in 10.0 mi NW 9.2 mph 17.3 mph N/A   Clear
6:55 PM 35.6 °F 27.1 °F 17.6 °F 48% 30.03 in 10.0 mi NW 12.7 mph 18.4 mph N/A   Clear
7:15 PM 35.2 °F 28.1 °F 17.1 °F 48% 30.03 in 10.0 mi NW 9.2 mph 20.7 mph N/A   Clear
7:35 PM 35.1 °F 27.9 °F 17.2 °F 48% 30.03 in 10.0 mi WNW 9.2 mph 17.3 mph N/A   Clear
7:55 PM 34.9 °F 27.1 °F 16.5 °F 47% 30.04 in 10.0 mi NW 10.4 mph 17.3 mph N/A   Clear
8:15 PM 34.7 °F 26.9 °F 16.7 °F 48% 30.05 in 10.0 mi NW 10.4 mph 18.4 mph N/A   Clear
8:35 PM 34.7 °F 28.8 °F 16.7 °F 48% 30.05 in 10.0 mi WNW 6.9 mph 17.3 mph N/A   Clear
8:55 PM 34.3 °F 26.5 °F 16.5 °F 48% 30.06 in 10.0 mi WNW 10.4 mph - N/A   Clear
9:15 PM 34.5 °F 27.3 °F 15.8 °F 46% 30.06 in 10.0 mi NW 9.2 mph 17.3 mph N/A   Clear
9:35 PM 34.2 °F 26.2 °F 14.5 °F 45% 30.07 in 10.0 mi NW 10.4 mph 16.1 mph N/A   Clear
9:55 PM 34.3 °F 28.4 °F 15.3 °F 46% 30.07 in 10.0 mi WNW 6.9 mph 17.3 mph N/A   Clear
10:15 PM 33.8 °F 27.7 °F 16.3 °F 49% 30.06 in 10.0 mi West 6.9 mph - N/A   Clear
10:35 PM 33.8 °F 26.4 °F 18.1 °F 53% 30.06 in 10.0 mi West 9.2 mph - N/A   Clear
10:55 PM 33.8 °F 27.0 °F 18.5 °F 54% 30.06 in 10.0 mi West 8.1 mph - N/A   Clear
11:15 PM 33.1 °F 26.9 °F 19.6 °F 58% 30.05 in 10.0 mi West 6.9 mph - N/A   Clear
11:35 PM 33.3 °F 26.4 °F 19.8 °F 58% 30.04 in 10.0 mi West 8.1 mph - N/A   Clear
11:55 PM 33.1 °F 26.1 °F 19.9 °F 59% 30.03 in 10.0 mi West 8.1 mph - N/A   Clear